Ortonville, MN

8:17 AM CDT on August 23, 2017 (GMT -0500)
Ortonville Municipal-Martinson

Weather History for KVVV - March, 2013

Change the Weather History Date:

Saturday, March 23, 2013

  Actual Average (KAQP) Record (KAQP)
Temperature  
Mean Temperature 19 °F -  
Max Temperature 26 °F 39 °F 69 °F (2003)
Min Temperature 12 °F 20 °F 1 °F (2002)
Degree Days  
Heating Degree Days 46    
Moisture  
Dew Point 12 °F    
Average Humidity 72    
Maximum Humidity 86    
Minimum Humidity 55    
Precipitation  
Precipitation 0.00 in - - ()
Sea Level Pressure  
Sea Level Pressure 30.15 in    
Wind  
Wind Speed 6 mph (NW)    
Max Wind Speed 10 mph    
Max Gust Speed -    
Visibility 10 miles    
Events Snow    
Averages and records for this station are not official NWS values.
T = Trace of Precipitation, MM = Missing Value Source: NWS Daily Summary

Daily Weather History Graph

Daily Weather History Graph

Search for Another Location

Airport or City:

Trip Planner

Search our weather history database for the weather conditions in past years. The results will help you decide how hot, cold, wet, or windy it might be!

Date:

Astronomy

Mar. 23, 2013 Rise Set
Actual Time 7:22 AM CDT 7:42 PM CDT
Civil Twilight 6:53 AM CDT 8:12 PM CDT
Nautical Twilight 6:18 AM CDT 8:46 PM CDT
Astronomical Twilight 5:42 AM CDT 9:22 PM CDT
Moon 4:01 PM CDT 5:09 AM CDT
Length of Visible Light 13h 18m
Length of Day
12h 19m
Waxing Gibbous, 85% of the Moon is Illuminated
Mar 23
Waxing Gibbous
Mar 27
Full
Apr 2
Last Quarter
Apr 10
New
Apr 18
First Quarter

Hourly Weather History & Observations

Time (CDT) Temp. Windchill Dew Point Humidity Pressure Visibility Wind Dir Wind Speed Gust Speed Precip Events Conditions
12:14 AM 14.0 °F 6.5 °F 8.6 °F 79% 30.11 in 10.0 mi NNW 4.6 mph - N/A   Clear
12:34 AM 14.0 °F 3.9 °F 8.6 °F 79% 30.10 in 10.0 mi North 6.9 mph - N/A   Mostly Cloudy
12:53 AM 12.2 °F 6.1 °F 6.8 °F 79% 30.10 in 10.0 mi NW 3.5 mph - N/A   Overcast
1:14 AM 15.8 °F 10.2 °F 8.6 °F 73% 30.12 in 10.0 mi WNW 3.5 mph - N/A   Overcast
1:34 AM 15.8 °F - 8.6 °F 73% 30.12 in 10.0 mi Calm Calm - N/A   Overcast
1:54 AM 15.8 °F 10.2 °F 8.6 °F 73% 30.11 in 10.0 mi WNW 3.5 mph - N/A   Overcast
2:14 AM 15.8 °F 7.2 °F 8.6 °F 73% 30.11 in 10.0 mi WNW 5.8 mph - N/A   Overcast
2:33 AM 15.8 °F 6.1 °F 10.4 °F 79% 30.12 in 10.0 mi NW 6.9 mph - N/A   Overcast
2:54 AM 15.8 °F 7.2 °F 10.4 °F 79% 30.12 in 10.0 mi NW 5.8 mph - N/A   Overcast
3:14 AM 15.8 °F 7.2 °F 10.4 °F 79% 30.13 in 10.0 mi NW 5.8 mph - N/A   Overcast
3:33 AM 15.8 °F 6.1 °F 10.4 °F 79% 30.14 in 10.0 mi WNW 6.9 mph - N/A   Overcast
3:54 AM 15.8 °F 7.2 °F 10.4 °F 79% 30.14 in 10.0 mi NW 5.8 mph - N/A   Overcast
4:14 AM 15.8 °F 8.6 °F 10.4 °F 79% 30.13 in 10.0 mi NNW 4.6 mph - N/A   Overcast
4:33 AM 15.8 °F 10.2 °F 10.4 °F 79% 30.14 in 10.0 mi NW 3.5 mph - N/A   Overcast
4:54 AM 15.8 °F 8.6 °F 10.4 °F 79% 30.13 in 10.0 mi North 4.6 mph - N/A   Overcast
5:14 AM 15.8 °F 7.2 °F 10.4 °F 79% 30.11 in 10.0 mi North 5.8 mph - N/A   Overcast
5:33 AM 15.8 °F 8.6 °F 10.4 °F 79% 30.13 in 10.0 mi NW 4.6 mph - N/A   Overcast
5:54 AM 15.8 °F 8.6 °F 10.4 °F 79% 30.14 in 10.0 mi NNW 4.6 mph - N/A   Overcast
6:14 AM 15.8 °F 7.2 °F 10.4 °F 79% 30.13 in 10.0 mi NNW 5.8 mph - N/A   Overcast
6:33 AM 15.8 °F 8.6 °F 10.4 °F 79% 30.15 in 10.0 mi WNW 4.6 mph - N/A Snow Light Snow
6:54 AM 15.8 °F 8.6 °F 10.4 °F 79% 30.14 in 10.0 mi NW 4.6 mph - N/A Snow Light Snow
7:14 AM 15.8 °F 7.2 °F 10.4 °F 79% 30.14 in 10.0 mi NW 5.8 mph - N/A   Overcast
7:33 AM 15.8 °F 7.2 °F 10.4 °F 79% 30.15 in 10.0 mi NW 5.8 mph - N/A   Overcast
7:54 AM 15.8 °F 6.1 °F 10.4 °F 79% 30.15 in 10.0 mi NNW 6.9 mph - N/A   Overcast
8:14 AM 15.8 °F 7.2 °F 10.4 °F 79% 30.15 in 10.0 mi NNW 5.8 mph - N/A   Overcast
8:34 AM 17.6 °F 10.7 °F 10.4 °F 73% 30.16 in 10.0 mi NW 4.6 mph - N/A   Overcast
8:54 AM 17.6 °F 10.7 °F 10.4 °F 73% 30.18 in 10.0 mi NW 4.6 mph - N/A   Overcast
9:14 AM 17.6 °F 8.2 °F 10.4 °F 73% 30.18 in 10.0 mi NNW 6.9 mph - N/A   Mostly Cloudy
9:34 AM 19.4 °F 9.5 °F 10.4 °F 68% 30.17 in 10.0 mi NW 8.1 mph - N/A   Scattered Clouds
9:54 AM 19.4 °F 8.6 °F 10.4 °F 68% 30.16 in 10.0 mi NNW 9.2 mph - N/A   Mostly Cloudy
10:14 AM 19.4 °F 8.6 °F 10.4 °F 68% 30.16 in 10.0 mi NNW 9.2 mph - N/A   Scattered Clouds
10:34 AM 19.4 °F 9.5 °F 12.2 °F 74% 30.17 in 10.0 mi North 8.1 mph - N/A   Clear
10:54 AM 21.2 °F 10.9 °F 12.2 °F 68% 30.17 in 10.0 mi North 9.2 mph - N/A   Clear
11:14 AM 21.2 °F 11.7 °F 10.4 °F 63% 30.17 in 10.0 mi NNW 8.1 mph - N/A   Clear
11:34 AM 21.2 °F 13.6 °F 12.2 °F 68% 30.17 in 10.0 mi North 5.8 mph - N/A   Clear
11:54 AM 23.0 °F 13.9 °F 12.2 °F 63% 30.17 in 10.0 mi North 8.1 mph - N/A   Clear
12:14 PM 23.0 °F 15.8 °F 12.2 °F 63% 30.17 in 10.0 mi NNW 5.8 mph - N/A   Clear
12:33 PM 23.0 °F 14.7 °F 12.2 °F 63% 30.18 in 10.0 mi North 6.9 mph - N/A   Clear
12:54 PM 23.0 °F 14.7 °F 14.0 °F 68% 30.17 in 10.0 mi North 6.9 mph - N/A   Clear
1:14 PM 23.0 °F 13.9 °F 12.2 °F 63% 30.17 in 10.0 mi North 8.1 mph - N/A   Clear
1:33 PM 24.8 °F 16.9 °F 14.0 °F 64% 30.17 in 10.0 mi North 6.9 mph - N/A   Clear
1:54 PM 24.8 °F 16.9 °F 14.0 °F 64% 30.17 in 10.0 mi North 6.9 mph - N/A   Clear
2:13 PM 26.6 °F 19.1 °F 15.8 °F 64% 30.17 in 10.0 mi North 6.9 mph - N/A   Clear
2:34 PM 26.6 °F 18.2 °F 14.0 °F 59% 30.16 in 10.0 mi NW 8.1 mph - N/A   Clear
2:53 PM 26.6 °F 18.2 °F 14.0 °F 59% 30.15 in 10.0 mi NW 8.1 mph - N/A   Clear
3:14 PM 26.6 °F 19.1 °F 14.0 °F 59% 30.15 in 10.0 mi NNW 6.9 mph - N/A   Clear
3:33 PM 26.6 °F 18.2 °F 14.0 °F 59% 30.15 in 10.0 mi NW 8.1 mph - N/A   Clear
3:54 PM 26.6 °F 16.8 °F 12.2 °F 55% 30.15 in 10.0 mi WNW 10.4 mph - N/A   Clear
4:13 PM 26.6 °F 17.5 °F 15.8 °F 64% 30.15 in 10.0 mi WNW 9.2 mph - N/A   Clear
4:34 PM 26.6 °F 17.5 °F 12.2 °F 55% 30.15 in 10.0 mi WNW 9.2 mph - N/A   Clear
4:54 PM 26.6 °F 19.1 °F 12.2 °F 55% 30.15 in 10.0 mi NW 6.9 mph - N/A   Clear
5:14 PM 26.6 °F 18.2 °F 12.2 °F 55% 30.15 in 10.0 mi NNW 8.1 mph - N/A   Clear
5:34 PM 26.6 °F 18.2 °F 14.0 °F 59% 30.15 in 10.0 mi NW 8.1 mph - N/A   Clear
5:53 PM 24.8 °F 15.3 °F 12.2 °F 59% 30.16 in 10.0 mi NW 9.2 mph - N/A   Clear
6:14 PM 24.8 °F 16.9 °F 14.0 °F 64% 30.16 in 10.0 mi NW 6.9 mph - N/A   Clear
6:34 PM 24.8 °F 16.1 °F 15.8 °F 69% 30.16 in 10.0 mi NW 8.1 mph - N/A   Clear
6:53 PM 24.8 °F 16.1 °F 15.8 °F 69% 30.16 in 10.0 mi NNW 8.1 mph - N/A   Clear
7:14 PM 24.8 °F 16.1 °F 15.8 °F 69% 30.17 in 10.0 mi NW 8.1 mph - N/A   Clear
7:33 PM 24.8 °F 16.9 °F 15.8 °F 69% 30.17 in 10.0 mi NNW 6.9 mph - N/A   Clear
7:54 PM 23.0 °F 13.9 °F 15.8 °F 74% 30.17 in 10.0 mi NW 8.1 mph - N/A   Clear
8:13 PM 23.0 °F 14.7 °F 17.6 °F 80% 30.17 in 10.0 mi NW 6.9 mph - N/A   Clear
8:34 PM 21.2 °F 11.7 °F 17.6 °F 86% 30.17 in 10.0 mi NW 8.1 mph - N/A   Clear
8:54 PM 21.2 °F 12.6 °F 17.6 °F 86% 30.18 in 10.0 mi NNW 6.9 mph - N/A   Clear
9:14 PM 21.2 °F 11.7 °F 17.6 °F 86% 30.18 in 10.0 mi NNW 8.1 mph - N/A   Clear
9:34 PM 21.2 °F 10.9 °F 17.6 °F 86% 30.18 in 10.0 mi NW 9.2 mph - N/A   Clear
9:53 PM 21.2 °F 10.9 °F 15.8 °F 80% 30.18 in 10.0 mi NW 9.2 mph - N/A   Clear
10:14 PM 21.2 °F 10.9 °F 15.8 °F 80% 30.18 in 10.0 mi NW 9.2 mph - N/A   Clear
10:34 PM 21.2 °F 10.9 °F 15.8 °F 80% 30.17 in 10.0 mi NW 9.2 mph - N/A   Clear
10:54 PM 21.2 °F 10.1 °F 15.8 °F 80% 30.17 in 10.0 mi NW 10.4 mph - N/A   Clear
11:14 PM 19.4 °F 7.9 °F 15.8 °F 86% 30.17 in 10.0 mi NW 10.4 mph - N/A   Clear
11:33 PM 19.4 °F 8.6 °F 15.8 °F 86% 30.17 in 10.0 mi NW 9.2 mph - N/A   Clear
11:54 PM 19.4 °F 7.9 °F 15.8 °F 86% 30.16 in 10.0 mi NW 10.4 mph - N/A   Clear